Terminal Aerodrome Forecast
Issued by NWS Caribou, ME

Home | Current Version | Previous Version | Text Only | Print | Product List | Glossary On
Versions: 1 2 3 4 5 6 7 8 9 10 11 12 13
000
FTUS41 KCAR 292300
TAFBGR
TAF
KBGR 292320Z 3000/3024 19003KT P6SM SCT250
     FM301500 19011G19KT P6SM BKN150=

USA.gov is the U.S. government's official web portal to all federal, state and local government web resources and services.